"Pseudo-MPEC" for P11I2AB

Created 2023 Sep 25 1:22:15 UT using Find_Orb

Click here for an explanation of pseudo-MPECs

 
 Astrometry: 
     P11I2AB  C2023 08 20q;_oh\IYO_)76jc=Q#x.4lbPdv00]?[RXPA;TD9Astrometry.MPF51
     P11I2AB* C2023 08 20x=m;HKm09:rC$I-i`LJ9^U4S/hxP%,Nwjy%70rredacted;Q(;0+F51
     P11I2AB  C2023 08 20HSlNW+22sfu;wkC*?@^c@c!*[,2PrxodL'o89B$5]v2N@pG:T14qF51
     P11I2AB  C2023 08 20f,r+\i#Z8g`?6y32WHoT4CN_DB9U11uO=H47k4O2uIN\4+*)9rgWF51
     P11I2AB 3C2023 08 21KdKZu\V$S$m-o^BDKqclickmMEObP3ED`Le=QOB1$XA)2EPs:4;9T14
     P11I2AB 3C2023 08 21_f`g1j)WN`=hereTK5+UWqY688lu,[kytW`aC*j_asy%M$n3YK*mT14
     P11I2AB 3C2023 08 21;v/=hV9u7^Ne;hM8rqwZjP9Ufor-+h25[N1kkexplanationG^O8T14

Station data:
(F51) Pan-STARRS 1, Haleakala  (N20.707234 W156.255910)  US/Hawaii.
   Observers J. Bulger, T. Lowe, A. Schultz, M. Willman. Measurers K.
   Chambers, S. Chastel, T. de Boer, L. Denneau, J. Fairlamb, H. Flewelling,
   M. Huber, C.-C. Lin, E. Magnier, Y. Ramanjooloo, R. Wainscoat, R. Weryk.
   1.8-m Ritchey-Chrétien + CCD.
(T14) Mauna Kea-UH/Tholen NEO Follow-Up (CFHT)  (N19.825252 W155.468876)
   US/Hawaii.  Observer R. Weryk. 3.6-m Canada-France-Hawaii Telescope.

Orbital elements:  P11I2AB
   Perihelion 2023 May 2.77830 +/- 24.7 TT = 18:40:45 (JD 2460067.27830)
Epoch 2023 Aug 21.0 TT = JDT 2460177.5   Earth MOID: 0.0135      AutoNEOCP
M  98.17118176 +/- 29               (J2000 ecliptic)
n   0.89067016 +/- 0.0676           Peri.  116.92365 +/- 6
a   1.06985464 +/- 0.0541           Node   100.07357 +/- 16
e   0.1302612 +/- 0.039             Incl.    4.52168 +/- 1.3
P   1.11/404.18d           H 24.63  G  0.15   U 10.9
q 0.93049406 +/- 0.00622    Q 1.20921523 +/- 0.103
From 7 observations 2023 Aug. 20-21 (25.5 hr); mean residual 0".13
Residuals in arcseconds: 
230820 F51  .02-  .21+    230820 F51  .06+  .09+    230821 T14  .13-  .08-    
230820 F51  .02-  .21+    230821 T14  .04+  .02+    
230820 F51  .03-  .30-    230821 T14  .09+  .06+    

Ephemerides (geocentric):
Date (UTC) HH   RA             Dec           delta  r     elong  mag " sig PA
---- --------  ------------   ------------  ------ ------ -----  --- --------
2023 09 25 01  22 53 35.930   -35 21 56.47  .20435 1.1678 140.4 22.9 7310  88
2023 09 25 02  22 53 32.888   -35 21 16.18  .20450 1.1679 140.4 22.9 7317  88
2023 09 25 03  22 53 29.856   -35 20 35.84  .20464 1.1679 140.3 22.9 7324  88
2023 09 25 04  22 53 26.834   -35 19 55.45  .20478 1.1680 140.3 22.9 7332  88
2023 09 25 05  22 53 23.822   -35 19 15.00  .20492 1.1681 140.3 22.9 7339  88
2023 09 25 06  22 53 20.819   -35 18 34.50  .20507 1.1681 140.3 22.9 7347  88
2023 09 25 07  22 53 17.827   -35 17 53.94  .20521 1.1682 140.2 22.9 7354  88
2023 09 25 08  22 53 14.845   -35 17 13.33  .20535 1.1682 140.2 22.9 7361  88
2023 09 25 09  22 53 11.872   -35 16 32.67  .20550 1.1683 140.2 22.9 7369  88
2023 09 25 10  22 53 08.910   -35 15 51.96  .20564 1.1684 140.2 22.9 7376  88
2023 09 25 11  22 53 05.957   -35 15 11.19  .20578 1.1684 140.1 22.9 7383  88
2023 09 25 12  22 53 03.015   -35 14 30.37  .20593 1.1685 140.1 22.9 7390  88
2023 09 25 13  22 53 00.082   -35 13 49.50  .20607 1.1685 140.1 22.9 7398  88
2023 09 25 14  22 52 57.159   -35 13 08.58  .20621 1.1686 140.1 22.9 7405  88
2023 09 25 15  22 52 54.246   -35 12 27.61  .20636 1.1687 140.0 22.9 7412  88
2023 09 25 16  22 52 51.343   -35 11 46.58  .20650 1.1687 140.0 22.9 7420  88
2023 09 25 17  22 52 48.449   -35 11 05.50  .20664 1.1688 140.0 22.9 7427  88
2023 09 25 18  22 52 45.566   -35 10 24.38  .20679 1.1688 140.0 22.9 7434  88
2023 09 25 19  22 52 42.692   -35 09 43.20  .20693 1.1689 139.9 22.9 7441  88
2023 09 25 20  22 52 39.828   -35 09 01.97  .20707 1.1689 139.9 23.0 7448  88
2023 09 25 21  22 52 36.974   -35 08 20.69  .20722 1.1690 139.9 23.0 7456  88
2023 09 25 22  22 52 34.130   -35 07 39.35  .20736 1.1691 139.9 23.0 7463  88
2023 09 25 23  22 52 31.296   -35 06 57.97  .20751 1.1691 139.8 23.0 7470  88
2023 09 26 00  22 52 28.471   -35 06 16.54  .20765 1.1692 139.8 23.0 7477  88
2023 09 26 01  22 52 25.657   -35 05 35.06  .20780 1.1692 139.8 23.0 7484  88
2023 09 26 02  22 52 22.852   -35 04 53.53  .20794 1.1693 139.8 23.0 7491  88
2023 09 26 03  22 52 20.056   -35 04 11.94  .20809 1.1693 139.7 23.0 7498  88
2023 09 26 04  22 52 17.271   -35 03 30.31  .20823 1.1694 139.7 23.0 7505  88
2023 09 26 05  22 52 14.495   -35 02 48.63  .20837 1.1695 139.7 23.0 7512  89
2023 09 26 06  22 52 11.729   -35 02 06.90  .20852 1.1695 139.7 23.0 7519  89
2023 09 26 07  22 52 08.973   -35 01 25.12  .20866 1.1696 139.6 23.0 7526  89
2023 09 26 08  22 52 06.227   -35 00 43.30  .20881 1.1696 139.6 23.0 7534  89
2023 09 26 09  22 52 03.490   -35 00 01.42  .20895 1.1697 139.6 23.0 7541  89
2023 09 26 10  22 52 00.763   -34 59 19.49  .20910 1.1698 139.6 23.0 7548  89
2023 09 26 11  22 51 58.045   -34 58 37.52  .20925 1.1698 139.5 23.0 7554  89
2023 09 26 12  22 51 55.338   -34 57 55.50  .20939 1.1699 139.5 23.0 7561  89
2023 09 26 13  22 51 52.640   -34 57 13.43  .20954 1.1699 139.5 23.0 7568  89
2023 09 26 14  22 51 49.951   -34 56 31.31  .20968 1.1700 139.5 23.0 7575  89
2023 09 26 15  22 51 47.273   -34 55 49.14  .20983 1.1700 139.4 23.0 7582  89
2023 09 26 16  22 51 44.604   -34 55 06.93  .20997 1.1701 139.4 23.0 7589  89
2023 09 26 17  22 51 41.945   -34 54 24.67  .21012 1.1702 139.4 23.0 7596  89
2023 09 26 18  22 51 39.295   -34 53 42.36  .21026 1.1702 139.4 23.0 7603  89
2023 09 26 19  22 51 36.655   -34 53 00.00  .21041 1.1703 139.3 23.0 7610  89
2023 09 26 20  22 51 34.024   -34 52 17.60  .21056 1.1703 139.3 23.0 7617  89
2023 09 26 21  22 51 31.404   -34 51 35.15  .21070 1.1704 139.3 23.0 7624  89
2023 09 26 22  22 51 28.793   -34 50 52.65  .21085 1.1704 139.3 23.0 7630  89
2023 09 26 23  22 51 26.191   -34 50 10.11  .21100 1.1705 139.2 23.0 7637  89
2023 09 27 00  22 51 23.599   -34 49 27.52  .21114 1.1706 139.2 23.0 7644  89